START_TIME,STEP,MOV.,M15,t_acc.,M20,t_acc.
1979-07-30 21:00:42.910 ,0,0,0.,24.0,0.,24.0
1979-07-30 21:01:06.910 ,0,1,0.,24.0,0.,24.0
1979-07-30 21:01:30.910 ,0,0,0.,24.0,0.,24.0
1979-07-30 21:01:54.910 ,1,1,0.,24.0,0.,24.0
1979-07-30 21:02:18.910 ,1,0,0.,24.0,0.,24.0
1979-07-30 21:02:42.910 ,2,1,0.,24.0,0.,24.0
1979-07-30 21:03:06.910 ,2,0,0.,24.0,0.,24.0
1979-07-30 21:03:30.910 ,3,1,0.,24.0,0.,24.0
1979-07-30 21:03:54.910 ,3,0,0.,24.0,0.,24.0
1979-07-30 21:04:18.910 ,4,1,0.,24.0,0.,24.0
1979-07-30 21:04:42.910 ,4,0,0.,24.0,0.,24.0
1979-07-30 21:05:06.910 ,0,0,,0,,0
1979-07-30 21:05:30.910 ,0,0,,0,,0
1979-07-30 21:08:04.510 ,0,0,0.,24.0,0.,24.0
1979-07-30 21:08:18.910 ,4,1,0.,24.0,0.,24.0
1979-07-30 21:08:42.910 ,7,1,0.,24.0,0.,24.0
1979-07-30 21:09:06.910 ,3,1,0.,24.0,0.,24.0
1979-07-30 21:09:30.910 ,0,1,0.,24.0,0.,24.0
1979-07-30 21:09:54.910 ,4,1,0.,24.0,0.,24.0
1979-07-30 21:10:18.910 ,7,1,0.,24.0,0.,24.0
1979-07-30 21:10:42.910 ,3,1,0.,24.0,0.,24.0
1979-07-30 21:11:06.910 ,0,1,0.,24.0,0.,24.0
1979-07-30 21:11:30.910 ,4,1,0.,24.0,0.,24.0
1979-07-30 21:11:54.910 ,7,1,0.,24.0,0.,24.0
1979-07-30 21:12:18.910 ,3,1,0.,24.0,0.,24.0
1979-07-30 21:12:42.910 ,0,1,0.,24.0,0.,24.0
1979-07-30 21:13:06.910 ,4,1,0.,24.0,0.,24.0
1979-07-30 21:13:30.910 ,7,1,0.,24.0,0.,24.0
1979-07-30 21:13:54.910 ,3,1,0.,24.0,0.,24.0
1979-07-30 21:14:18.910 ,0,1,0.,24.0,0.,24.0
1979-07-30 21:14:42.910 ,4,1,0.,24.0,0.,24.0
1979-07-30 21:15:06.910 ,7,1,0.,24.0,0.,24.0
1979-07-30 21:15:30.910 ,3,1,0.,24.0,0.,24.0
1979-07-30 21:15:54.910 ,0,1,0.,24.0,0.,24.0
1979-07-30 21:16:18.910 ,4,1,0.,24.0,0.,24.0
1979-07-30 21:16:42.910 ,7,1,0.,24.0,0.,24.0
1979-07-30 21:17:06.910 ,3,1,0.,24.0,0.,24.0
1979-07-30 21:17:30.910 ,0,1,0.,24.0,0.,24.0
1979-07-30 21:17:54.910 ,0,0,0.,24.0,0.,24.0
1979-07-30 21:18:18.910 ,0,0,0.,24.0,0.,24.0
1979-07-30 21:18:42.910 ,5,1,0.,24.0,0.,24.0
1979-07-30 21:19:06.910 ,5,0,0.,24.0,0.,24.0
1979-07-30 21:19:30.910 ,4,1,0.,24.0,0.,24.0
1979-07-30 21:19:54.910 ,4,0,0.,24.0,0.,24.0
1979-07-30 21:20:18.910 ,3,1,0.,24.0,0.,24.0
1979-07-30 21:20:42.910 ,3,0,0.,24.0,0.,24.0
1979-07-30 21:21:06.910 ,2,1,0.,24.0,0.,24.0
1979-07-30 21:21:30.910 ,2,0,0.,24.0,0.,24.0
1979-07-30 21:21:54.910 ,1,1,0.,24.0,0.,24.0
1979-07-30 21:22:18.910 ,1,0,0.,24.0,0.,24.0
1979-07-30 21:22:42.910 ,0,1,0.,24.0,0.,24.0
1979-07-30 21:23:06.910 ,0,0,0.,24.0,0.,24.0
1979-07-30 21:23:30.910 ,0,1,0.,24.0,0.,24.0
1979-07-30 21:23:54.910 ,0,0,0.,24.0,0.,24.0
1979-07-30 21:24:18.910 ,1,1,0.,24.0,0.,24.0
1979-07-30 21:24:42.910 ,1,0,0.,24.0,0.,24.0
1979-07-30 21:25:06.910 ,2,1,0.,24.0,0.,24.0
1979-07-30 21:25:30.910 ,2,0,0.,24.0,0.,24.0
1979-07-30 21:25:54.910 ,3,1,0.,24.0,0.,24.0
1979-07-30 21:26:18.910 ,3,0,0.,24.0,0.,24.0
1979-07-30 21:26:42.910 ,4,1,0.,24.0,0.,24.0
1979-07-30 21:27:06.910 ,4,0,0.,24.0,0.,24.0
1979-07-30 21:27:30.910 ,5,1,0.,24.0,0.,24.0
1979-07-30 21:27:54.910 ,5,0,0.,24.0,0.,24.0
1979-07-30 21:28:18.910 ,6,1,0.,24.0,0.,24.0
1979-07-30 21:28:42.910 ,6,0,1.,24.0,0.,24.0
1979-07-30 21:29:06.910 ,7,1,0.,24.0,0.,24.0
1979-07-30 21:29:30.910 ,7,0,0.,24.0,0.,24.0
1979-07-30 21:29:54.910 ,7,1,0.,24.0,0.,24.0
1979-07-30 21:30:18.910 ,7,0,0.,24.0,0.,24.0
1979-07-30 21:30:42.910 ,6,1,0.,24.0,0.,24.0
1979-07-30 21:31:06.910 ,6,0,0.,24.0,0.,24.0
1979-07-30 21:31:30.910 ,5,1,0.,24.0,0.,24.0
1979-07-30 21:31:54.910 ,5,0,0.,24.0,0.,24.0
1979-07-30 21:32:18.910 ,4,1,0.,24.0,0.,24.0
1979-07-30 21:32:42.910 ,4,0,0.,24.0,0.,24.0
1979-07-30 21:33:06.910 ,3,1,0.,24.0,0.,24.0
1979-07-30 21:33:30.910 ,3,0,0.,24.0,0.,24.0
1979-07-30 21:33:54.910 ,2,1,0.,24.0,0.,24.0
1979-07-30 21:34:18.910 ,2,0,0.,24.0,0.,24.0
1979-07-30 21:34:42.910 ,1,1,0.,24.0,0.,24.0
1979-07-30 21:35:06.910 ,1,0,0.,24.0,0.,24.0
1979-07-30 21:35:30.910 ,0,1,0.,24.0,0.,24.0
1979-07-30 21:35:54.910 ,0,0,0.,24.0,0.,24.0
1979-07-30 21:36:18.910 ,0,1,0.,24.0,0.,24.0
1979-07-30 21:36:42.910 ,0,0,0.,24.0,0.,24.0
1979-07-30 21:37:06.910 ,1,1,0.,24.0,0.,24.0
1979-07-30 21:37:30.910 ,1,0,0.,24.0,0.,24.0
1979-07-30 21:37:54.910 ,2,1,0.,24.0,0.,24.0
1979-07-30 21:38:18.910 ,2,0,0.,24.0,0.,24.0
1979-07-30 21:38:42.910 ,3,1,0.,24.0,0.,24.0
1979-07-30 21:39:06.910 ,3,0,0.,24.0,0.,24.0
1979-07-30 21:39:30.910 ,4,1,0.,24.0,0.,24.0
1979-07-30 21:39:54.910 ,4,0,0.,24.0,0.,24.0
1979-07-30 21:40:18.910 ,5,1,0.,24.0,0.,24.0
1979-07-30 21:40:42.910 ,5,0,0.,24.0,0.,24.0
1979-07-30 21:41:06.910 ,6,1,0.,24.0,0.,24.0
1979-07-30 21:41:30.910 ,6,0,0.,24.0,0.,24.0
1979-07-30 21:41:54.910 ,7,1,0.,24.0,0.,24.0
1979-07-30 21:42:18.910 ,7,0,0.,24.0,0.,24.0
1979-07-30 21:42:42.910 ,7,1,0.,24.0,0.,24.0
1979-07-30 21:43:06.910 ,7,0,0.,24.0,0.,24.0
1979-07-30 21:43:30.910 ,6,1,0.,24.0,0.,24.0
1979-07-30 21:43:54.910 ,6,0,0.,24.0,0.,24.0
1979-07-30 21:44:18.910 ,5,1,0.,24.0,0.,24.0
1979-07-30 21:44:42.910 ,5,0,0.,24.0,0.,24.0
1979-07-30 21:45:06.910 ,4,1,0.,24.0,0.,24.0
1979-07-30 21:45:30.910 ,4,0,0.,24.0,0.,24.0
1979-07-30 21:45:54.910 ,3,1,0.,24.0,0.,24.0
1979-07-30 21:46:18.910 ,3,0,0.,24.0,0.,24.0
1979-07-30 21:46:42.910 ,2,1,0.,24.0,0.,24.0
1979-07-30 21:47:06.910 ,2,0,0.,24.0,0.,24.0
1979-07-30 21:47:30.910 ,1,1,0.,24.0,0.,24.0
1979-07-30 21:47:54.910 ,1,0,0.,24.0,0.,24.0
1979-07-30 21:48:18.910 ,0,1,0.,24.0,0.,24.0
1979-07-30 21:48:42.910 ,0,0,0.,24.0,0.,24.0
1979-07-30 21:49:06.910 ,0,1,0.,24.0,0.,24.0
1979-07-30 21:49:30.910 ,0,0,0.,24.0,0.,24.0
1979-07-30 21:49:54.910 ,1,1,0.,24.0,0.,24.0
1979-07-30 21:50:18.910 ,1,0,0.,24.0,0.,24.0
1979-07-30 21:50:42.910 ,2,1,0.,24.0,0.,24.0
1979-07-30 21:51:06.910 ,2,0,0.,24.0,0.,24.0
1979-07-30 21:51:30.910 ,3,1,0.,24.0,0.,24.0
1979-07-30 21:51:54.910 ,3,0,0.,24.0,0.,24.0
1979-07-30 21:52:18.910 ,4,1,0.,24.0,0.,24.0
1979-07-30 21:52:42.910 ,4,0,0.,24.0,0.,24.0
1979-07-30 21:53:06.910 ,5,1,0.,24.0,0.,24.0
1979-07-30 21:53:30.910 ,5,0,0.,24.0,0.,24.0
1979-07-30 21:53:54.910 ,6,1,0.,24.0,0.,24.0
1979-07-30 21:54:18.910 ,6,0,0.,24.0,0.,24.0
1979-07-30 21:54:42.910 ,7,0,0.,24.0,0.,24.0
1979-07-30 21:55:06.910 ,7,0,0.,24.0,0.,24.0
1979-07-30 21:55:30.910 ,3,1,0.,24.0,0.,24.0
1979-07-30 21:55:54.910 ,0,1,0.,24.0,0.,24.0
1979-07-30 21:56:18.910 ,4,1,0.,24.0,0.,24.0
1979-07-30 21:56:42.910 ,7,1,0.,24.0,0.,24.0
1979-07-30 21:57:06.910 ,3,1,0.,24.0,0.,24.0
1979-07-30 21:57:30.910 ,0,1,0.,24.0,0.,24.0
1979-07-30 21:57:54.910 ,4,1,0.,24.0,0.,24.0
1979-07-30 21:58:18.910 ,7,1,0.,24.0,0.,24.0
1979-07-30 21:58:42.910 ,3,1,0.,24.0,0.,24.0
1979-07-30 21:59:06.910 ,0,1,0.,24.0,0.,24.0
1979-07-30 21:59:30.910 ,4,1,0.,24.0,0.,24.0
1979-07-30 21:59:54.910 ,7,1,0.,24.0,0.,24.0
1979-07-30 22:00:18.910 ,3,1,0.,24.0,0.,24.0
1979-07-30 22:00:42.910 ,0,1,0.,24.0,0.,24.0
1979-07-30 22:01:06.910 ,4,1,0.,24.0,0.,24.0
1979-07-30 22:01:30.910 ,7,1,0.,24.0,0.,24.0
1979-07-30 22:01:54.910 ,3,1,0.,24.0,0.,24.0
1979-07-30 22:02:18.910 ,0,1,0.,24.0,0.,24.0
1979-07-30 22:02:42.910 ,4,1,0.,24.0,0.,24.0
1979-07-30 22:03:06.910 ,7,1,0.,24.0,0.,24.0
1979-07-30 22:03:30.910 ,3,1,0.,24.0,0.,24.0
1979-07-30 22:03:54.910 ,0,1,0.,24.0,0.,24.0
1979-07-30 22:04:18.910 ,4,1,0.,24.0,0.,24.0
1979-07-30 22:04:42.910 ,7,1,0.,24.0,0.,24.0
1979-07-30 22:05:06.910 ,3,1,0.,24.0,0.,24.0
1979-07-30 22:05:30.910 ,0,1,0.,24.0,0.,24.0
1979-07-30 22:05:54.910 ,0,0,0.,24.0,0.,24.0
1979-07-30 22:06:18.910 ,0,0,0.,24.0,0.,24.0
1979-07-30 22:06:42.910 ,5,1,0.,24.0,0.,24.0
1979-07-30 22:07:06.910 ,5,0,0.,24.0,0.,24.0
1979-07-30 22:07:30.910 ,4,1,0.,24.0,0.,24.0
1979-07-30 22:07:54.910 ,4,0,0.,24.0,0.,24.0
1979-07-30 22:08:18.910 ,3,1,0.,24.0,0.,24.0
1979-07-30 22:08:42.910 ,3,0,0.,24.0,0.,24.0
1979-07-30 22:09:06.910 ,2,1,0.,24.0,0.,24.0
1979-07-30 22:09:30.910 ,2,0,0.,24.0,0.,24.0
1979-07-30 22:09:54.910 ,1,1,0.,24.0,0.,24.0
1979-07-30 22:10:18.910 ,1,0,0.,24.0,0.,24.0
1979-07-30 22:10:42.910 ,0,1,0.,24.0,0.,24.0
1979-07-30 22:11:06.910 ,0,0,0.,24.0,0.,24.0
1979-07-30 22:11:30.910 ,0,1,0.,24.0,0.,24.0
1979-07-30 22:11:54.910 ,0,0,0.,24.0,0.,24.0
1979-07-30 22:12:18.910 ,1,1,0.,24.0,0.,24.0
1979-07-30 22:12:42.910 ,1,0,0.,24.0,0.,24.0
1979-07-30 22:13:06.910 ,2,1,0.,24.0,0.,24.0
1979-07-30 22:13:30.910 ,2,0,0.,24.0,0.,24.0
1979-07-30 22:13:54.910 ,3,1,0.,24.0,0.,24.0
1979-07-30 22:14:18.910 ,3,0,0.,24.0,0.,24.0
1979-07-30 22:14:42.910 ,4,1,0.,24.0,0.,24.0
1979-07-30 22:15:06.910 ,4,0,0.,24.0,0.,24.0
1979-07-30 22:15:30.910 ,5,1,0.,24.0,0.,24.0
1979-07-30 22:15:54.910 ,5,0,0.,24.0,0.,24.0
1979-07-30 22:16:18.910 ,6,1,0.,24.0,0.,24.0
1979-07-30 22:16:42.910 ,6,0,0.,24.0,0.,24.0
1979-07-30 22:17:06.910 ,7,1,0.,24.0,0.,24.0
1979-07-30 22:17:30.910 ,7,0,0.,24.0,0.,24.0
1979-07-30 22:17:54.910 ,7,1,0.,24.0,0.,24.0
1979-07-30 22:18:18.910 ,7,0,0.,24.0,0.,24.0
1979-07-30 22:18:42.910 ,6,1,0.,24.0,0.,24.0
1979-07-30 22:19:06.910 ,6,0,0.,24.0,0.,24.0
1979-07-30 22:19:30.910 ,5,1,0.,24.0,0.,24.0
1979-07-30 22:19:54.910 ,5,0,0.,24.0,0.,24.0
1979-07-30 22:20:18.910 ,4,1,0.,24.0,0.,24.0
1979-07-30 22:20:42.910 ,4,0,0.,24.0,0.,24.0
1979-07-30 22:21:06.910 ,3,1,0.,24.0,0.,24.0
1979-07-30 22:21:30.910 ,3,0,0.,24.0,0.,24.0
1979-07-30 22:21:54.910 ,2,1,0.,24.0,0.,24.0
1979-07-30 22:22:18.910 ,2,0,0.,24.0,0.,24.0
1979-07-30 22:22:42.910 ,1,1,0.,24.0,0.,24.0
1979-07-30 22:23:06.910 ,1,0,0.,24.0,0.,24.0
1979-07-30 22:23:30.910 ,0,1,0.,24.0,0.,24.0
1979-07-30 22:23:54.910 ,0,0,0.,24.0,0.,24.0
1979-07-30 22:24:18.910 ,0,1,0.,24.0,0.,24.0
1979-07-30 22:24:42.910 ,0,0,0.,24.0,0.,24.0
1979-07-30 22:25:06.910 ,1,1,0.,24.0,0.,24.0
1979-07-30 22:25:30.910 ,1,0,0.,24.0,0.,24.0
1979-07-30 22:25:54.910 ,2,1,0.,24.0,0.,24.0
1979-07-30 22:26:18.910 ,2,0,0.,24.0,0.,24.0
1979-07-30 22:26:42.910 ,3,1,0.,24.0,0.,24.0
1979-07-30 22:27:06.910 ,3,0,0.,24.0,0.,24.0
1979-07-30 22:27:30.910 ,4,1,0.,24.0,0.,24.0
1979-07-30 22:27:54.910 ,4,0,0.,24.0,0.,24.0
1979-07-30 22:28:18.910 ,5,1,0.,24.0,0.,24.0
1979-07-30 22:28:42.910 ,5,0,0.,24.0,0.,24.0
1979-07-30 22:29:06.910 ,6,1,0.,24.0,0.,24.0
1979-07-30 22:29:30.910 ,6,0,0.,24.0,0.,24.0
1979-07-30 22:29:54.910 ,7,1,0.,24.0,0.,24.0
1979-07-30 22:30:18.910 ,7,0,0.,24.0,0.,24.0
1979-07-30 22:30:42.910 ,7,1,0.,24.0,0.,24.0
1979-07-30 22:31:06.910 ,7,0,0.,24.0,0.,24.0
1979-07-30 22:31:30.910 ,6,1,0.,24.0,0.,24.0
1979-07-30 22:31:54.910 ,6,0,0.,24.0,0.,24.0
1979-07-30 22:32:18.910 ,5,1,0.,24.0,0.,24.0
1979-07-30 22:32:42.910 ,5,0,0.,24.0,0.,24.0
1979-07-30 22:33:06.910 ,4,1,0.,24.0,0.,24.0
1979-07-30 22:33:30.910 ,4,0,0.,24.0,0.,24.0
1979-07-30 22:33:54.910 ,3,1,0.,24.0,0.,24.0
1979-07-30 22:34:18.910 ,3,0,0.,24.0,0.,24.0
1979-07-30 22:34:42.900 ,2,1,0.,24.0,0.,24.0
1979-07-30 22:35:06.900 ,2,0,0.,24.0,0.,24.0
1979-07-30 22:35:30.900 ,1,1,0.,24.0,0.,24.0
1979-07-30 22:35:54.900 ,1,0,0.,24.0,0.,24.0
1979-07-30 22:36:18.900 ,0,1,0.,24.0,0.,24.0
1979-07-30 22:36:42.900 ,0,0,0.,24.0,0.,24.0
1979-07-30 22:37:06.900 ,0,1,0.,24.0,0.,24.0
1979-07-30 22:37:30.900 ,0,0,0.,24.0,0.,24.0
1979-07-30 22:37:54.900 ,1,1,0.,24.0,0.,24.0
1979-07-30 22:38:18.900 ,1,0,0.,24.0,0.,24.0
1979-07-30 22:38:42.900 ,2,1,0.,24.0,0.,24.0
1979-07-30 22:39:06.900 ,2,0,0.,24.0,0.,24.0
1979-07-30 22:39:30.900 ,3,1,0.,24.0,0.,24.0
1979-07-30 22:39:54.900 ,3,0,0.,24.0,0.,24.0
1979-07-30 22:40:18.900 ,4,1,0.,24.0,0.,24.0
1979-07-30 22:40:42.900 ,4,0,0.,24.0,0.,24.0
1979-07-30 22:41:06.900 ,5,1,0.,24.0,0.,24.0
1979-07-30 22:41:30.900 ,5,0,0.,24.0,0.,24.0
1979-07-30 22:41:54.900 ,6,1,0.,24.0,0.,24.0
1979-07-30 22:42:18.900 ,6,0,0.,24.0,0.,24.0
1979-07-30 22:42:42.900 ,7,0,0.,24.0,0.,24.0
1979-07-30 22:43:06.900 ,7,0,0.,24.0,0.,24.0
1979-07-30 22:43:30.900 ,3,1,0.,24.0,0.,24.0
1979-07-30 22:43:54.900 ,0,1,0.,24.0,0.,24.0
1979-07-30 22:44:18.900 ,4,1,0.,24.0,0.,24.0
1979-07-30 22:44:42.900 ,7,1,0.,24.0,0.,24.0
1979-07-30 22:45:06.900 ,3,1,0.,24.0,0.,24.0
1979-07-30 22:45:30.900 ,0,1,0.,24.0,0.,24.0
1979-07-30 22:45:54.900 ,4,1,0.,24.0,0.,24.0
1979-07-30 22:46:18.900 ,7,1,0.,24.0,0.,24.0
1979-07-30 22:46:42.900 ,3,1,0.,24.0,0.,24.0
1979-07-30 22:47:06.900 ,0,1,0.,24.0,0.,24.0
1979-07-30 22:47:30.900 ,4,1,0.,24.0,0.,24.0
1979-07-30 22:47:54.900 ,7,1,0.,24.0,0.,24.0
1979-07-30 22:48:18.900 ,3,1,0.,24.0,0.,24.0
1979-07-30 22:48:42.900 ,0,1,0.,24.0,0.,24.0
1979-07-30 22:49:06.900 ,4,1,0.,24.0,0.,24.0
1979-07-30 22:49:30.900 ,7,1,0.,24.0,0.,24.0
1979-07-30 22:49:54.900 ,3,1,0.,24.0,0.,24.0
1979-07-30 22:50:18.900 ,0,1,0.,24.0,0.,24.0
1979-07-30 22:51:30.900 ,0,0,0.,24.0,0.,24.0
1979-07-30 22:51:54.900 ,0,1,0.,24.0,0.,24.0
1979-07-30 22:52:18.900 ,4,1,0.,24.0,0.,24.0
1979-07-30 22:52:42.900 ,7,1,0.,24.0,0.,24.0
1979-07-30 22:53:06.900 ,3,1,0.,24.0,0.,24.0
1979-07-30 22:53:30.900 ,0,1,0.,24.0,0.,24.0
1979-07-30 22:53:54.900 ,0,0,0.,24.0,0.,24.0
1979-07-30 22:54:18.900 ,0,0,0.,24.0,0.,24.0
1979-07-30 22:54:42.900 ,5,1,0.,24.0,0.,24.0
1979-07-30 22:55:06.900 ,5,0,0.,24.0,0.,24.0
1979-07-30 22:55:30.900 ,4,1,0.,24.0,0.,24.0
1979-07-30 22:55:54.900 ,4,0,0.,24.0,0.,24.0
1979-07-30 22:56:18.900 ,3,1,0.,24.0,0.,24.0
1979-07-30 22:56:42.900 ,3,0,0.,24.0,0.,24.0
1979-07-30 22:57:06.900 ,2,1,0.,24.0,0.,24.0
1979-07-30 22:57:30.900 ,2,0,0.,24.0,0.,24.0
1979-07-30 22:57:54.900 ,1,1,0.,24.0,0.,24.0
1979-07-30 22:58:18.900 ,1,0,0.,24.0,0.,24.0
1979-07-30 22:58:42.900 ,0,1,0.,24.0,0.,24.0
1979-07-30 22:59:06.900 ,0,0,1.,24.0,0.,24.0
1979-07-30 22:59:30.900 ,0,1,0.,24.0,0.,24.0
1979-07-30 22:59:54.900 ,0,0,0.,24.0,0.,24.0
1979-07-30 23:00:18.900 ,1,1,0.,24.0,0.,24.0
1979-07-30 23:00:42.900 ,1,0,0.,24.0,0.,24.0
1979-07-30 23:01:06.900 ,2,1,0.,24.0,0.,24.0
1979-07-30 23:01:30.900 ,2,0,0.,24.0,0.,24.0
1979-07-30 23:01:54.900 ,3,1,0.,24.0,0.,24.0
1979-07-30 23:02:18.900 ,3,0,0.,24.0,0.,24.0
1979-07-30 23:02:42.900 ,4,1,0.,24.0,0.,24.0
1979-07-30 23:03:06.900 ,4,0,0.,24.0,0.,24.0
1979-07-30 23:03:30.900 ,5,1,0.,24.0,0.,24.0
1979-07-30 23:03:54.900 ,5,0,0.,24.0,0.,24.0
1979-07-30 23:04:18.900 ,6,1,0.,24.0,0.,24.0
1979-07-30 23:04:42.900 ,6,0,0.,24.0,0.,24.0
1979-07-30 23:05:06.900 ,7,1,0.,24.0,0.,24.0
1979-07-30 23:05:30.900 ,7,0,0.,24.0,0.,24.0
1979-07-30 23:05:54.900 ,7,1,0.,24.0,0.,24.0
1979-07-30 23:06:18.900 ,7,0,0.,24.0,0.,24.0
1979-07-30 23:06:42.900 ,6,1,0.,24.0,0.,24.0
1979-07-30 23:07:06.900 ,6,0,0.,24.0,0.,24.0
1979-07-30 23:07:30.900 ,5,1,0.,24.0,0.,24.0
1979-07-30 23:07:54.900 ,5,0,0.,24.0,0.,24.0
1979-07-30 23:08:18.900 ,4,1,0.,24.0,0.,24.0
1979-07-30 23:08:42.900 ,4,0,0.,24.0,0.,24.0
1979-07-30 23:09:06.900 ,3,1,0.,24.0,0.,24.0
1979-07-30 23:09:30.900 ,3,0,0.,24.0,0.,24.0
1979-07-30 23:09:54.900 ,2,1,0.,24.0,0.,24.0
1979-07-30 23:10:18.900 ,2,0,0.,24.0,0.,24.0
1979-07-30 23:10:42.900 ,1,1,0.,24.0,0.,24.0
1979-07-30 23:11:06.900 ,1,0,0.,24.0,0.,24.0
1979-07-30 23:11:30.900 ,0,1,0.,24.0,0.,24.0
1979-07-30 23:11:54.900 ,0,0,0.,24.0,0.,24.0
1979-07-30 23:12:18.900 ,0,1,0.,24.0,0.,24.0
1979-07-30 23:12:42.900 ,0,0,0.,24.0,0.,24.0
1979-07-30 23:13:06.900 ,1,1,0.,24.0,0.,24.0
1979-07-30 23:13:30.900 ,1,0,0.,24.0,0.,24.0
1979-07-30 23:13:54.900 ,2,1,0.,24.0,0.,24.0
1979-07-30 23:14:18.900 ,2,0,0.,24.0,0.,24.0
1979-07-30 23:14:42.900 ,3,1,0.,24.0,0.,24.0
1979-07-30 23:15:06.900 ,3,0,0.,24.0,0.,24.0
1979-07-30 23:15:30.900 ,4,1,0.,24.0,0.,24.0
1979-07-30 23:15:54.900 ,4,0,0.,24.0,0.,24.0
1979-07-30 23:16:18.900 ,5,1,0.,24.0,0.,24.0
1979-07-30 23:16:42.900 ,5,0,0.,24.0,0.,24.0
1979-07-30 23:17:06.900 ,6,1,0.,24.0,0.,24.0
1979-07-30 23:17:30.900 ,6,0,0.,24.0,0.,24.0
1979-07-30 23:18:42.900 ,0,0,0.,24.0,0.,24.0
1979-07-30 23:19:06.900 ,0,0,0.,24.0,0.,24.0
1979-07-30 23:19:30.900 ,6,1,1.,24.0,0.,24.0
1979-07-30 23:19:54.900 ,6,0,0.,24.0,0.,24.0
1979-07-30 23:20:18.900 ,5,1,0.,24.0,0.,24.0
1979-07-30 23:20:42.900 ,5,0,0.,24.0,0.,24.0
1979-07-30 23:21:06.900 ,4,1,0.,24.0,0.,24.0
1979-07-30 23:21:30.900 ,4,0,0.,24.0,0.,24.0
1979-07-30 23:21:54.900 ,3,1,0.,24.0,0.,24.0
1979-07-30 23:22:18.900 ,3,0,0.,24.0,0.,24.0
1979-07-30 23:22:42.900 ,2,1,0.,24.0,0.,24.0
1979-07-30 23:23:06.900 ,2,0,0.,24.0,0.,24.0
1979-07-30 23:23:30.900 ,1,1,0.,24.0,0.,24.0
1979-07-30 23:23:54.900 ,1,0,0.,24.0,0.,24.0
1979-07-30 23:24:18.900 ,0,1,0.,24.0,0.,24.0
1979-07-30 23:24:42.900 ,0,0,0.,24.0,0.,24.0
1979-07-30 23:25:06.900 ,0,1,0.,24.0,0.,24.0
1979-07-30 23:25:30.900 ,0,0,0.,24.0,0.,24.0
1979-07-30 23:25:54.900 ,1,1,0.,24.0,0.,24.0
1979-07-30 23:26:18.900 ,1,0,0.,24.0,0.,24.0
1979-07-30 23:26:42.900 ,2,1,0.,24.0,0.,24.0
1979-07-30 23:27:06.900 ,2,0,0.,24.0,0.,24.0
1979-07-30 23:27:30.900 ,3,1,0.,24.0,0.,24.0
1979-07-30 23:27:54.900 ,3,0,0.,24.0,0.,24.0
1979-07-30 23:28:18.900 ,4,1,0.,24.0,0.,24.0
1979-07-30 23:28:42.900 ,4,0,0.,24.0,0.,24.0
1979-07-30 23:29:06.900 ,5,1,0.,24.0,0.,24.0
1979-07-30 23:29:30.900 ,5,0,0.,24.0,0.,24.0
1979-07-30 23:29:54.900 ,6,1,0.,24.0,0.,24.0
1979-07-30 23:30:18.900 ,6,0,0.,24.0,0.,24.0
1979-07-30 23:30:42.900 ,7,0,0.,24.0,0.,24.0
1979-07-30 23:31:06.900 ,7,0,0.,24.0,0.,24.0
1979-07-30 23:31:30.900 ,3,1,0.,24.0,0.,24.0
1979-07-30 23:31:54.900 ,0,1,0.,24.0,0.,24.0
1979-07-30 23:32:18.900 ,4,1,0.,24.0,0.,24.0
1979-07-30 23:32:42.900 ,7,1,0.,24.0,0.,24.0
1979-07-30 23:33:06.900 ,3,1,0.,24.0,0.,24.0
1979-07-30 23:33:30.900 ,0,1,0.,24.0,0.,24.0
1979-07-30 23:33:54.900 ,4,1,0.,24.0,0.,24.0
1979-07-30 23:34:18.900 ,7,1,0.,24.0,0.,24.0
1979-07-30 23:34:42.900 ,3,1,0.,24.0,0.,24.0
1979-07-30 23:35:06.900 ,0,1,0.,24.0,0.,24.0
1979-07-30 23:35:30.900 ,4,1,0.,24.0,0.,24.0
1979-07-30 23:35:54.900 ,7,1,0.,24.0,0.,24.0
1979-07-30 23:36:18.900 ,3,1,0.,24.0,0.,24.0
1979-07-30 23:36:42.900 ,0,1,0.,24.0,0.,24.0
1979-07-30 23:37:06.900 ,4,1,0.,24.0,0.,24.0
1979-07-30 23:37:30.900 ,7,1,0.,24.0,0.,24.0
1979-07-30 23:37:54.900 ,3,1,0.,24.0,0.,24.0
1979-07-30 23:38:18.900 ,0,1,0.,24.0,0.,24.0
1979-07-30 23:38:42.900 ,4,1,0.,24.0,0.,24.0
1979-07-30 23:39:06.900 ,7,1,0.,24.0,0.,24.0
1979-07-30 23:39:30.900 ,3,1,0.,24.0,0.,24.0
1979-07-30 23:39:54.900 ,0,1,0.,24.0,0.,24.0
1979-07-30 23:40:18.900 ,4,1,0.,24.0,0.,24.0
1979-07-30 23:40:42.900 ,7,1,0.,24.0,0.,24.0
1979-07-30 23:41:06.900 ,3,1,0.,24.0,0.,24.0
1979-07-30 23:41:30.900 ,0,1,0.,24.0,0.,24.0
1979-07-30 23:41:54.900 ,0,0,0.,24.0,0.,24.0
1979-07-30 23:42:18.900 ,0,0,0.,24.0,0.,24.0
1979-07-30 23:42:42.900 ,5,1,0.,24.0,0.,24.0
1979-07-30 23:43:06.900 ,5,0,0.,24.0,0.,24.0
1979-07-30 23:43:30.900 ,4,1,0.,24.0,0.,24.0
1979-07-30 23:43:54.900 ,4,0,0.,24.0,0.,24.0
1979-07-30 23:44:18.900 ,3,1,0.,24.0,0.,24.0
1979-07-30 23:44:42.900 ,3,0,0.,24.0,0.,24.0
1979-07-30 23:45:06.900 ,2,1,0.,24.0,0.,24.0
1979-07-30 23:45:30.900 ,2,0,0.,24.0,0.,24.0
1979-07-30 23:45:54.900 ,1,1,0.,24.0,0.,24.0
1979-07-30 23:46:18.900 ,1,0,0.,24.0,0.,24.0
1979-07-30 23:46:42.900 ,0,1,0.,24.0,0.,24.0
1979-07-30 23:47:06.900 ,0,0,0.,24.0,0.,24.0
1979-07-30 23:47:30.900 ,0,1,0.,24.0,0.,24.0
1979-07-30 23:47:54.900 ,0,0,0.,24.0,0.,24.0
1979-07-30 23:48:18.900 ,1,1,0.,24.0,0.,24.0
1979-07-30 23:48:42.900 ,1,0,0.,24.0,0.,24.0
1979-07-30 23:49:06.900 ,2,1,0.,24.0,0.,24.0
1979-07-30 23:49:30.900 ,2,0,0.,24.0,0.,24.0
1979-07-30 23:01:30.900 ,0,0,0.,24.0,0.,24.0
1979-07-30 23:01:54.900 ,3,1,0.,24.0,0.,24.0
1979-07-30 23:02:18.900 ,3,0,0.,24.0,0.,24.0
1979-07-30 23:02:42.900 ,4,1,0.,24.0,0.,24.0
1979-07-30 23:03:06.900 ,4,0,0.,24.0,0.,24.0
1979-07-30 23:03:30.900 ,5,1,0.,24.0,0.,24.0
1979-07-30 23:03:54.900 ,5,0,0.,24.0,0.,24.0
1979-07-30 23:04:18.900 ,6,1,0.,24.0,0.,24.0
1979-07-30 23:04:42.900 ,6,0,0.,24.0,0.,24.0
1979-07-30 23:05:06.900 ,7,1,0.,24.0,0.,24.0
1979-07-30 23:05:30.900 ,7,0,0.,24.0,0.,24.0
1979-07-30 23:05:54.900 ,7,1,0.,24.0,0.,24.0
1979-07-30 23:06:18.900 ,7,0,0.,24.0,0.,24.0
1979-07-30 23:06:42.900 ,6,1,0.,24.0,0.,24.0
1979-07-30 23:07:06.900 ,6,0,0.,24.0,0.,24.0
1979-07-30 23:07:30.900 ,5,1,0.,24.0,0.,24.0
1979-07-30 23:07:54.900 ,5,0,0.,24.0,0.,24.0
1979-07-30 23:08:18.900 ,4,1,0.,24.0,0.,24.0
1979-07-30 23:08:42.900 ,4,0,0.,24.0,0.,24.0
1979-07-30 23:09:06.900 ,3,1,0.,24.0,0.,24.0
1979-07-30 23:09:30.900 ,3,0,0.,24.0,0.,24.0
1979-07-30 23:09:54.900 ,2,1,0.,24.0,0.,24.0
1979-07-30 23:10:18.900 ,2,0,0.,24.0,0.,24.0
1979-07-30 23:10:42.900 ,1,1,0.,24.0,0.,24.0
1979-07-30 23:11:06.900 ,1,0,0.,24.0,0.,24.0
1979-07-30 23:11:30.900 ,0,1,0.,24.0,0.,24.0
1979-07-30 23:11:54.900 ,0,0,0.,24.0,0.,24.0
1979-07-30 23:12:18.900 ,0,1,0.,24.0,0.,24.0
1979-07-30 23:12:42.900 ,0,0,0.,24.0,0.,24.0
1979-07-30 23:13:06.900 ,1,1,0.,24.0,0.,24.0
1979-07-30 23:13:30.900 ,1,0,0.,24.0,0.,24.0
1979-07-30 23:13:54.900 ,2,1,0.,24.0,0.,24.0
1979-07-30 23:14:18.900 ,2,0,0.,24.0,0.,24.0
1979-07-30 23:14:42.900 ,3,1,0.,24.0,0.,24.0
1979-07-30 23:15:06.900 ,3,0,0.,24.0,0.,24.0
1979-07-30 23:15:30.900 ,4,1,0.,24.0,0.,24.0
1979-07-30 23:15:54.900 ,4,0,0.,24.0,0.,24.0
1979-07-30 23:16:18.900 ,5,1,0.,24.0,0.,24.0
1979-07-30 23:16:42.900 ,5,0,0.,24.0,0.,24.0
1979-07-30 23:17:06.900 ,6,1,0.,24.0,0.,24.0
1979-07-30 23:17:30.900 ,6,0,0.,24.0,0.,24.0
1979-07-30 23:18:42.900 ,0,0,0.,24.0,0.,24.0
1979-07-30 23:19:06.900 ,0,0,0.,24.0,0.,24.0
1979-07-30 23:19:30.900 ,6,1,1.,24.0,0.,24.0
1979-07-30 23:19:54.900 ,6,0,0.,24.0,0.,24.0
1979-07-30 23:20:18.900 ,5,1,0.,24.0,0.,24.0
1979-07-30 23:20:42.900 ,5,0,0.,24.0,0.,24.0
1979-07-30 23:21:06.900 ,4,1,0.,24.0,0.,24.0
1979-07-30 23:21:30.900 ,4,0,0.,24.0,0.,24.0
1979-07-30 23:21:54.900 ,3,1,0.,24.0,0.,24.0
1979-07-30 23:22:18.900 ,3,0,0.,24.0,0.,24.0
1979-07-30 23:22:42.900 ,2,1,0.,24.0,0.,24.0
1979-07-30 23:23:06.900 ,2,0,0.,24.0,0.,24.0
1979-07-30 23:23:30.900 ,1,1,0.,24.0,0.,24.0
1979-07-30 23:23:54.900 ,1,0,0.,24.0,0.,24.0
1979-07-30 23:24:18.900 ,0,1,0.,24.0,0.,24.0
1979-07-30 23:24:42.900 ,0,0,0.,24.0,0.,24.0
1979-07-30 23:25:06.900 ,0,1,0.,24.0,0.,24.0
1979-07-30 23:25:30.900 ,0,0,0.,24.0,0.,24.0
1979-07-30 23:25:54.900 ,1,1,0.,24.0,0.,24.0
1979-07-30 23:26:18.900 ,1,0,0.,24.0,0.,24.0
1979-07-30 23:26:42.900 ,2,1,0.,24.0,0.,24.0
1979-07-30 23:27:06.900 ,2,0,0.,24.0,0.,24.0
1979-07-30 23:27:30.900 ,3,1,0.,24.0,0.,24.0
1979-07-30 23:27:54.900 ,3,0,0.,24.0,0.,24.0
1979-07-30 23:28:18.900 ,4,1,0.,24.0,0.,24.0
1979-07-30 23:28:42.900 ,4,0,0.,24.0,0.,24.0
1979-07-30 23:29:06.900 ,5,1,0.,24.0,0.,24.0
1979-07-30 23:29:30.900 ,5,0,0.,24.0,0.,24.0
1979-07-30 23:29:54.900 ,6,1,0.,24.0,0.,24.0
1979-07-30 23:30:18.900 ,6,0,0.,24.0,0.,24.0
1979-07-30 23:30:42.900 ,7,0,0.,24.0,0.,24.0
1979-07-30 23:31:06.900 ,7,0,0.,24.0,0.,24.0
1979-07-30 23:31:30.900 ,3,1,0.,24.0,0.,24.0
1979-07-30 23:31:54.900 ,0,1,0.,24.0,0.,24.0
1979-07-30 23:32:18.900 ,4,1,0.,24.0,0.,24.0
1979-07-30 23:32:42.900 ,7,1,0.,24.0,0.,24.0
1979-07-30 23:33:06.900 ,3,1,0.,24.0,0.,24.0
1979-07-30 23:33:30.900 ,0,1,0.,24.0,0.,24.0
1979-07-30 23:33:54.900 ,4,1,0.,24.0,0.,24.0
1979-07-30 23:34:18.900 ,7,1,0.,24.0,0.,24.0
1979-07-30 23:34:42.900 ,3,1,0.,24.0,0.,24.0
1979-07-30 23:35:06.900 ,0,1,0.,24.0,0.,24.0
1979-07-30 23:35:30.900 ,4,1,0.,24.0,0.,24.0
1979-07-30 23:35:54.900 ,7,1,0.,24.0,0.,24.0
1979-07-30 23:36:18.900 ,3,1,0.,24.0,0.,24.0
1979-07-30 23:36:42.900 ,0,1,0.,24.0,0.,24.0
1979-07-30 23:37:06.900 ,4,1,0.,24.0,0.,24.0
1979-07-30 23:37:30.900 ,7,1,0.,24.0,0.,24.0
1979-07-30 23:37:54.900 ,3,1,0.,24.0,0.,24.0
1979-07-30 23:38:18.900 ,0,1,0.,24.0,0.,24.0
1979-07-30 23:38:42.900 ,4,1,0.,24.0,0.,24.0
1979-07-30 23:39:06.900 ,7,1,0.,24.0,0.,24.0
1979-07-30 23:39:30.900 ,3,1,0.,24.0,0.,24.0
1979-07-30 23:39:54.900 ,0,1,0.,24.0,0.,24.0
1979-07-30 23:40:18.900 ,4,1,0.,24.0,0.,24.0
1979-07-30 23:40:42.900 ,7,1,0.,24.0,0.,24.0
1979-07-30 23:41:06.900 ,3,1,0.,24.0,0.,24.0
1979-07-30 23:41:30.900 ,0,1,0.,24.0,0.,24.0
1979-07-30 23:41:54.900 ,0,0,0.,24.0,0.,24.0
1979-07-30 23:42:18.900 ,0,0,0.,24.0,0.,24.0
1979-07-30 23:42:42.900 ,5,1,0.,24.0,0.,24.0
1979-07-30 23:43:06.900 ,5,0,0.,24.0,0.,24.0
1979-07-30 23:43:30.900 ,4,1,0.,24.0,0.,24.0
1979-07-30 23:43:54.900 ,4,0,0.,24.0,0.,24.0
1979-07-30 23:44:18.900 ,3,1,0.,24.0,0.,24.0
1979-07-30 23:44:42.900 ,3,0,0.,24.0,0.,24.0